Location: Avully
(45.9633°N, 6.0228°E)
Time: 06:59:04
(UTC+00:00)

CZ-2C R/B - Pass Details

Date: 23 May 2024
Orbit: 703 x 904 km, 98.2° (Epoch: 19 June)

Event Time Altitude Azimuth Distance (km) Brightness Sun altitude
Rises 01:36:10 0° 16° (NNE) 3,539 7.9 -17.7°
Reaches altitude 10° 01:38:38 10° 19° (NNE) 2,595 7.0 -17.5°
Maximum altitude 01:44:25 63° 100° (E) 998 3.6 -17.0°
Enters shadow 01:48:30 19° 178° (S) 1,958 4.6 -16.6°
